Salinas, CA

9:26 AM PDT on May 27, 2018 (GMT -0700)
Salinas Municipal

Weather History for KSNS - September, 2013

Change the Weather History Date:

Tuesday, September 10, 2013

  Actual Average Record
Temperature  
Mean Temperature 65 °F 65 °F  
Max Temperature 71 °F 74 °F 97 °F (1979)
Min Temperature 58 °F 55 °F 41 °F (1933)
Degree Days  
Heating Degree Days 0 2  
Month to date heating degree days 0 20  
Since 1 July heating degree days 105 155  
Cooling Degree Days 0 1  
Month to date cooling degree days 36 10  
Year to date cooling degree days 120 79  
Growing Degree Days 14 (Base 50)    
Moisture  
Dew Point 56 °F    
Average Humidity 79    
Maximum Humidity 100    
Minimum Humidity 57    
Precipitation  
Precipitation 0.00 in 0.01 in 0.03 in (1975)
Month to date precipitation 0.00 0.02  
Year to date precipitation 2.35 8.77  
Since 1 July precipitation 0.02  
Sea Level Pressure  
Sea Level Pressure 29.88 in    
Wind  
Wind Speed 10 mph (WNW)    
Max Wind Speed 21 mph    
Max Gust Speed 25 mph    
Visibility 8 miles    
Events      
T = Trace of Precipitation, MM = Missing Value Source: NWS Daily Summary

Daily Weather History Graph

Daily Weather History Graph

Search for Another Location

Airport or City:

Astronomy

Sep. 10, 2013 Rise Set
Actual Time 6:45 AM PDT 7:20 PM PDT
Civil Twilight 6:18 AM PDT 7:46 PM PDT
Nautical Twilight 5:48 AM PDT 8:17 PM PDT
Astronomical Twilight 5:16 AM PDT 8:48 PM PDT
Moon 12:06 PM PDT (9/10) 10:38 PM PDT (9/10)
Length of Visible Light 13h 27m
Length of Day
12h 35m
Waxing Crescent, 29% of the Moon is Illuminated
Sep 10
Waxing Crescent
Sep 12
First Quarter
Sep 19
Full
Sep 26
Last Quarter
Oct 4
New

Hourly Weather History & Observations

Time (PDT) Temp. Dew Point Humidity Pressure Visibility Wind Dir Wind Speed Gust Speed Precip Events Conditions
12:48 AM 59.0 °F 55.4 °F 88% 29.79 in 2.5 mi WNW 6.9 mph - N/A   Overcast
12:53 AM 59.0 °F 55.9 °F 90% 29.82 in 2.5 mi WNW 5.8 mph - N/A   Overcast
1:31 AM 57.2 °F 55.4 °F 94% 29.79 in 4.0 mi WNW 5.8 mph - N/A   Overcast
1:53 AM 57.9 °F 57.0 °F 97% 29.82 in 3.0 mi West 5.8 mph - N/A   Overcast
2:53 AM 59.0 °F 57.0 °F 93% 29.83 in 5.0 mi NW 4.6 mph - N/A   Overcast
3:53 AM 57.9 °F 55.9 °F 93% 29.83 in 7.0 mi West 5.8 mph - N/A   Overcast
4:53 AM 57.9 °F 55.0 °F 90% 29.83 in 9.0 mi West 6.9 mph - N/A   Overcast
5:53 AM 57.9 °F 55.9 °F 93% 29.84 in 8.0 mi WNW 6.9 mph - N/A   Overcast
6:16 AM 57.2 °F 55.4 °F 94% 29.82 in 8.0 mi West 5.8 mph - N/A   Overcast
6:53 AM 57.9 °F 55.0 °F 90% 29.86 in 9.0 mi NW 6.9 mph - N/A   Overcast
7:53 AM 57.9 °F 55.9 °F 93% 29.87 in 3.0 mi NW 4.6 mph - N/A   Overcast
8:02 AM 57.2 °F 55.4 °F 94% 29.85 in 2.0 mi WNW 4.6 mph - N/A   Overcast
8:26 AM 59.0 °F 57.2 °F 94% 29.86 in 5.0 mi NW 5.8 mph - N/A   Overcast
8:53 AM 59.0 °F 57.0 °F 93% 29.89 in 3.0 mi West 4.6 mph - N/A   Overcast
9:53 AM 60.1 °F 55.9 °F 86% 29.90 in 7.0 mi WNW 4.6 mph - N/A   Overcast
10:53 AM 62.1 °F 55.9 °F 80% 29.91 in 10.0 mi West 8.1 mph - N/A   Overcast
11:53 AM 64.0 °F 55.9 °F 75% 29.91 in 10.0 mi NW 11.5 mph - N/A   Overcast
12:25 PM 66.2 °F 55.4 °F 68% 29.88 in 10.0 mi NW 15.0 mph - N/A   Overcast
12:53 PM 66.0 °F 55.9 °F 70% 29.90 in 10.0 mi NW 12.7 mph - N/A   Mostly Cloudy
1:07 PM 68.0 °F 55.4 °F 64% 29.87 in 10.0 mi NNW 15.0 mph - N/A   Scattered Clouds
1:53 PM 70.0 °F 55.9 °F 61% 29.89 in 10.0 mi NW 18.4 mph 24.2 mph N/A   Clear
2:53 PM 71.1 °F 55.9 °F 59% 29.89 in 10.0 mi NW 18.4 mph 21.9 mph N/A   Clear
3:53 PM 70.0 °F 57.0 °F 63% 29.89 in 10.0 mi NW 18.4 mph - N/A   Clear
4:53 PM 69.1 °F 55.9 °F 63% 29.89 in 10.0 mi NW 17.3 mph 25.3 mph N/A   Clear
5:53 PM 66.9 °F 57.0 °F 70% 29.90 in 10.0 mi NW 15.0 mph - N/A   Scattered Clouds
6:06 PM 68.0 °F 57.2 °F 68% 29.87 in 10.0 mi NW 16.1 mph - N/A   Mostly Cloudy
6:46 PM 64.4 °F 57.2 °F 77% 29.88 in 10.0 mi NW 15.0 mph - N/A   Scattered Clouds
6:53 PM 64.9 °F 57.0 °F 75% 29.91 in 10.0 mi NW 13.8 mph - N/A   Partly Cloudy
7:44 PM 64.4 °F 55.4 °F 73% 29.89 in 10.0 mi NW 13.8 mph - N/A   Mostly Cloudy
7:53 PM 64.0 °F 55.9 °F 75% 29.92 in 10.0 mi NW 12.7 mph - N/A   Mostly Cloudy
8:53 PM 64.0 °F 55.9 °F 75% 29.94 in 10.0 mi NW 8.1 mph - N/A   Overcast
9:53 PM 64.0 °F 55.9 °F 75% 29.94 in 10.0 mi NNW 6.9 mph - N/A   Overcast
10:53 PM 64.0 °F 55.9 °F 75% 29.95 in 10.0 mi NW 5.8 mph - N/A   Overcast
11:53 PM 63.0 °F 55.9 °F 78% 29.96 in 10.0 mi West 6.9 mph - N/A   Overcast